Vorticity
8 8 8 9 9 7 6 6 6 7 7 6 6 7 7 7 6 5 6 7 7 8 7 6 7 6 6 7 9 10 8 6 7 7 6 6 5 5 6 6 7 7 7 8 8 7 6 7 7 7 7 7 7 7 6 7 8 8 9 9 9 10 9 10 12 11 9 8 9 9 8 8 9 8 9 9 8 7 8 8 8 6 6 6 5
10 9 8 9 11 10 8 6 6 6 6 8 8 7 7 7 5 5 5 5 6 7 8 7 7 6 6 6 6 8 9 9 9 9 8 6 5 6 6 6 6 6 6 7 7 7 7 7 7 7 7 7 7 7 6 6 6 7 7 7 7 8 8 7 7 6 5 5 6 6 6 6 7 7 7 7 7 7 7 7 6 5 5 4 5
11 13 11 9 7 8 10 9 7 6 5 7 7 7 8 7 5 6 5 5 5 5 6 7 7 7 6 6 6 6 8 9 9 9 9 7 5 6 6 6 6 7 7 7 7 7 7 6 6 6 6 7 7 8 7 6 6 7 8 7 6 7 8 7 7 6 6 5 5 5 5 5 5 5 6 6 6 6 7 7 6 5 6 6 6
3 11 12 10 8 9 10 8 7 9 8 7 7 7 9 9 7 7 7 7 5 3 4 6 6 6 6 6 7 7 8 8 7 7 9 9 7 6 6 6 7 7 7 8 8 8 7 7 7 6 6 6 7 8 8 8 8 8 8 7 7 8 9 8 8 8 8 7 6 5 5 5 5 5 5 6 6 6 7 6 6 6 6 7 7
2 12 10 8 9 7 8 8 6 8 7 7 8 7 8 9 9 9 9 10 8 5 4 4 3 4 5 6 6 6 6 6 6 6 8 9 9 8 6 6 8 8 6 6 7 7 7 7 7 7 7 6 6 7 8 8 8 8 8 9 8 8 7 6 7 7 6 7 7 7 6 6 6 6 6 6 6 7 7 6 6 7 7 7 6
13 16 6 7 13 8 8 11 9 8 7 7 8 8 8 8 7 8 7 7 9 9 7 5 4 4 4 4 4 5 7 7 7 6 6 7 8 7 6 5 6 7 6 5 6 6 6 6 6 7 7 7 7 7 8 8 8 7 6 8 7 5 6 6 6 5 5 5 6 6 6 6 6 6 6 6 6 6 8 7 6 7 8 8 8
6 5 -7 0 12 10 9 12 11 9 9 9 11 11 10 9 7 7 7 6 7 8 8 7 6 6 6 6 5 6 7 7 7 6 6 6 7 7 7 6 5 6 5 5 5 6 7 6 6 6 6 6 6 6 7 7 8 7 6 8 8 6 6 6 5 4 4 4 4 4 5 5 5 6 5 5 5 5 6 6 6 6 7 8 9
-4 3 -0 5 11 9 9 9 8 8 9 9 10 9 9 10 9 9 10 11 11 10 10 9 8 7 6 5 5 6 7 6 6 6 6 6 6 6 8 8 8 8 6 6 6 7 7 6 6 9 9 7 7 6 6 6 5 5 6 6 6 4 4 4 4 3 3 4 4 4 5 5 6 6 5 5 5 6 5 5 4 4 5 8 10
1 2 2 8 12 8 7 7 6 7 10 9 9 9 8 8 8 8 8 10 12 12 11 10 10 10 8 6 5 5 6 6 5 5 5 6 6 5 6 7 8 9 8 7 6 8 9 8 8 9 7 7 9 9 8 7 6 6 5 3 3 3 4 4 3 4 5 5 6 6 6 7 7 7 7 7 7 6 6 5 4 3 4 6 7
13 10 4 4 3 -3 -3 5 7 6 9 9 9 10 10 10 9 8 6 6 7 9 10 9 9 10 10 9 6 4 5 6 5 5 5 6 6 6 6 6 6 7 8 8 7 8 9 8 7 5 3 5 8 8 7 7 6 7 6 5 5 4 4 4 4 5 5 5 6 7 7 7 7 8 8 8 8 8 8 8 6 6 5 4 4
13 22 17 5 -0 -2 -0 5 7 5 5 6 6 6 8 10 12 11 10 9 7 8 9 8 7 7 9 11 9 6 6 5 5 5 5 5 5 5 5 6 6 5 4 6 8 7 6 6 5 5 6 7 6 6 7 6 5 6 6 6 6 5 5 6 6 7 7 7 7 7 7 8 8 9 9 9 10 10 10 10 9 8 8 6 4
12 24 22 7 -1 2 4 5 6 5 5 4 4 4 6 8 10 11 12 11 11 11 10 9 11 10 7 8 10 9 6 5 6 6 6 6 6 5 5 4 5 5 4 5 8 8 8 8 5 3 5 7 7 7 7 6 6 7 7 6 6 6 7 8 8 8 8 8 7 7 9 8 8 9 9 10 10 10 10 11 11 10 8 7 5
17 24 27 20 10 5 4 4 5 6 5 5 5 4 4 5 6 7 7 7 8 10 9 9 13 12 5 4 10 11 8 6 6 5 6 6 6 7 7 5 6 7 6 6 6 5 7 8 7 6 6 6 6 6 5 5 7 8 8 8 7 7 7 8 9 9 9 8 8 8 8 6 6 6 6 7 8 7 7 7 7 8 7 6 7
18 18 20 21 19 16 14 12 13 12 7 4 5 5 5 4 4 3 3 3 3 4 4 3 4 6 5 5 9 13 13 12 11 9 6 5 6 6 4 5 8 6 3 7 7 4 4 7 7 6 7 8 7 5 4 5 6 7 8 8 7 7 7 8 9 9 8 8 7 5 5 4 4 4 4 5 5 5 5 5 5 5 7 7 8
12 12 13 12 10 12 15 20 27 28 18 7 3 5 6 5 3 4 6 4 -0 -1 4 5 4 5 6 5 8 11 10 9 11 13 11 9 10 9 7 9 10 3 -0 6 10 6 3 5 3 1 3 8 9 8 8 7 5 6 6 7 7 7 7 7 8 6 5 5 4 3 2 3 4 4 4 4 4 5 6 6 6 6 7 7 7
7 9 12 14 11 8 9 16 26 34 32 20 7 3 5 5 2 3 5 4 -1 -4 -0 4 5 7 7 4 3 5 3 2 8 12 10 7 5 5 10 13 9 5 5 4 5 8 8 5 3 1 2 5 7 8 9 8 6 6 7 7 7 7 7 7 6 5 4 5 5 4 3 4 4 4 4 4 4 5 6 5 5 5 7 8 7
5 6 7 9 13 12 9 10 12 19 30 31 19 10 10 11 11 11 12 12 12 11 12 9 4 5 8 2 -2 0 3 3 4 4 2 1 -1 -2 6 9 5 6 10 5 0 5 10 9 8 6 4 5 6 7 6 5 3 5 7 6 4 4 6 7 6 5 5 5 6 5 4 4 4 3 3 3 3 4 5 4 3 4 6 8 7
6 6 5 4 7 10 10 10 7 5 11 17 18 18 18 16 14 14 16 21 25 27 28 23 12 6 5 4 2 3 3 -0 -1 -0 0 2 2 1 3 4 3 6 12 13 13 12 9 6 6 7 6 6 6 6 6 5 3 4 6 4 3 4 5 5 5 6 5 5 5 6 5 5 4 4 3 3 3 4 4 4 5 8 9 8 7
7 6 6 5 4 6 7 10 10 8 6 5 6 10 11 11 8 2 2 9 17 23 28 30 28 19 12 9 4 -1 -0 1 1 0 -1 -1 2 3 4 3 3 3 4 8 13 15 12 8 5 7 7 6 7 7 6 6 4 4 7 7 6 6 5 5 5 5 5 5 5 6 7 6 5 5 4 4 4 5 5 5 7 9 10 9 8
8 9 9 6 5 5 5 6 8 8 8 7 6 6 7 11 11 7 4 2 3 7 12 19 25 26 23 19 9 1 2 3 2 5 9 9 6 6 7 7 8 10 11 12 13 15 16 10 5 8 8 5 6 7 6 5 4 3 5 6 4 4 5 5 5 4 5 5 5 5 5 5 6 6 6 6 6 6 8 8 9 9 9 8 8
4 6 8 8 8 6 5 5 5 6 6 7 8 7 7 9 11 13 13 9 3 1 3 9 15 21 27 30 25 21 20 19 21 26 27 27 26 23 22 22 20 17 15 13 12 18 23 18 12 12 11 3 2 5 5 6 8 9 7 4 2 3 5 6 6 5 6 6 7 7 7 7 8 7 7 7 7 7 9 10 9 9 8 7 7
5 4 4 6 8 9 8 6 5 5 6 7 8 8 8 7 7 10 11 12 10 7 5 7 7 5 10 16 19 21 20 18 20 18 17 28 38 37 37 40 39 38 37 30 18 12 13 13 12 15 16 10 5 4 5 6 8 10 11 8 5 5 5 5 5 5 6 7 8 9 8 7 7 7 8 8 8 8 9 8 8 8 8 8 7
7 7 6 5 5 8 10 9 7 6 6 5 5 6 7 7 7 8 8 10 12 9 4 4 3 1 2 4 6 6 1 -4 -2 4 16 28 23 11 7 8 8 19 37 47 43 33 24 20 19 20 21 19 14 9 6 5 6 8 9 8 9 9 8 7 6 5 5 6 8 9 8 6 6 6 6 6 7 8 7 5 5 6 8 8 6
8 9 9 8 6 7 8 9 9 8 6 6 5 5 6 6 7 8 8 8 11 11 9 9 9 9 8 6 5 3 -1 -2 2 8 16 20 12 1 -4 -12 -15 -2 15 24 26 26 25 27 30 28 22 17 18 19 15 6 1 2 4 6 8 10 10 9 9 8 7 7 7 9 7 4 3 4 4 4 5 7 6 5 5 5 6 5 3
6 6 7 7 8 8 7 8 9 7 6 5 6 7 7 7 8 9 9 10 11 10 11 11 10 10 9 10 11 11 12 15 16 10 4 3 5 3 -2 -5 -0 9 13 11 8 8 9 13 24 34 31 17 8 14 20 18 11 8 6 4 4 4 4 5 6 6 4 5 7 7 4 3 4 7 9 9 9 8 6 5 6 6 5 4 4
6 6 5 5 6 7 7 9 8 8 9 7 6 5 5 6 7 6 6 9 10 9 9 9 8 9 11 13 13 11 12 16 17 10 1 -4 -6 -6 -3 4 6 1 0 8 12 12 8 4 9 28 44 44 31 24 27 32 31 26 19 14 11 8 3 1 4 5 3 2 3 3 4 9 15 20 23 24 23 20 16 12 10 8 5 5 7
9 7 3 2 4 5 7 10 9 7 6 6 7 7 6 5 5 5 5 5 6 7 8 7 7 9 10 10 9 9 12 15 16 15 12 9 7 5 5 6 6 5 11 15 10 4 2 1 -1 -1 7 21 25 19 15 17 19 19 20 23 27 27 20 13 12 12 9 4 5 10 16 19 20 19 19 19 21 23 24 24 22 21 17 15 13
12 11 7 3 2 2 3 7 11 10 6 5 7 8 8 7 5 4 5 4 4 5 6 5 5 6 5 5 6 7 9 10 11 11 11 11 12 12 12 13 15 18 19 12 3 1 5 9 8 -3 -12 -7 5 10 12 12 10 9 12 16 23 27 26 21 19 20 21 20 20 22 21 16 11 7 4 3 4 7 10 13 15 16 16 14 12
11 15 15 8 4 3 1 2 8 11 10 7 7 8 10 11 10 8 6 4 3 4 4 5 6 5 4 4 5 5 5 5 5 6 6 8 8 9 13 19 18 15 11 7 5 6 3 0 -1 -4 -6 -1 6 10 12 10 8 7 8 10 16 20 22 22 21 20 19 17 13 10 6 5 6 8 8 8 7 6 6 6 7 7 7 6 6
9 13 16 14 9 5 1 0 4 10 12 10 8 8 8 9 10 11 11 9 8 5 4 5 6 6 6 6 6 5 5 4 4 5 6 8 9 7 5 4 0 -3 -1 -0 -2 -4 -6 -5 -3 1 5 7 8 10 10 8 8 8 6 6 9 11 11 11 10 7 5 3 2 1 2 4 6 7 7 7 7 8 7 6 6 6 5 5 5
9 8 10 13 14 10 5 1 2 6 9 8 7 7 7 6 7 7 8 9 11 10 7 6 5 6 6 7 6 6 6 5 5 6 5 5 6 7 6 5 3 2 3 3 1 0 2 6 10 13 14 13 11 11 11 10 10 9 7 5 5 3 2 1 -1 -1 -0 1 2 2 4 5 5 4 4 4 5 5 5 4 4 4 4 4 4
12 11 9 10 13 14 12 8 6 7 5 2 0 1 1 3 4 5 6 8 9 10 10 9 7 6 5 5 6 7 6 6 5 5 6 6 6 6 6 6 7 7 7 7 8 9 10 13 13 12 11 11 10 10 10 10 10 9 8 7 6 6 5 3 3 3 3 2 3 3 5 6 6 6 6 5 5 5 5 5 5 5 5 5 4
8 10 11 11 12 15 17 14 10 7 2 -4 -4 -0 2 4 5 5 6 7 7 7 9 10 10 10 7 6 6 6 6 6 6 5 5 5 4 5 7 7 8 7 7 7 7 7 8 8 8 8 9 8 8 7 7 8 8 8 7 6 6 6 6 6 6 6 6 6 6 5 4 4 4 3 4 3 3 3 2 2 3 3 3 4 4
10 10 11 11 10 15 22 24 18 9 1 -5 -4 0 4 6 9 9 8 7 6 7 7 7 8 9 9 9 8 6 5 5 4 4 5 4 4 3 3 3 4 5 7 8 8 8 7 5 4 5 6 6 6 6 6 6 6 6 6 5 5 5 5 5 4 4 4 5 4 3 2 2 1 2 2 1 1 2 1 1 2 2 2 3 3
8 10 10 10 8 9 15 20 16 6 -2 -4 -1 4 6 7 7 8 9 9 9 8 7 6 6 6 7 8 7 6 6 5 3 3 3 3 4 4 3 3 3 2 2 3 3 3 4 5 5 5 3 3 3 3 3 4 4 4 3 3 2 2 3 3 3 3 2 2 2 2 2 1 2 3 2 2 2 2 1 1 2 2 2 3 3
7 8 8 8 9 8 9 13 13 8 3 0 -1 1 4 7 8 8 7 8 9 10 9 8 6 6 7 7 6 6 7 7 7 8 7 6 6 5 5 4 4 3 3 2 2 2 2 1 2 2 2 3 3 2 2 3 3 3 4 3 3 3 2 2 2 3 2 3 4 5 5 4 5 6 5 5 5 4 4 5 5 5 5 4 4
12 12 11 11 12 13 12 12 13 14 16 17 16 12 8 5 5 6 7 7 8 8 9 8 6 5 7 7 7 6 6 7 7 7 8 9 10 9 9 9 8 8 8 7 6 5 5 5 5 4 4 4 4 4 4 4 4 5 5 4 5 5 4 4 4 4 3 2 2 2 3 3 4 5 5 5 5 4 4 4 4 4 5 4 3
14 13 13 14 16 18 19 17 14 13 13 16 20 23 22 18 15 13 14 13 10 7 6 7 7 7 8 9 8 7 6 6 7 7 7 8 8 8 8 9 9 9 9 9 9 9 8 9 9 8 7 8 7 7 8 8 8 9 8 8 8 8 8 10 11 10 10 10 9 8 7 7 7 8 8 8 8 8 9 9 8 8 8 7 6
9 8 8 8 8 10 13 15 16 15 13 11 11 13 16 20 20 20 20 20 16 9 5 5 6 6 6 8 10 9 7 5 5 6 7 8 8 8 8 8 8 8 8 8 8 7 6 7 8 8 7 7 6 6 7 7 7 7 7 7 8 8 8 9 9 9 11 12 12 12 13 12 12 13 11 10 11 11 11 12 12 12 12 12 12
5 3 5 6 6 6 7 7 9 11 12 13 11 9 10 11 11 12 14 16 15 11 8 8 7 6 5 7 9 11 11 9 7 6 6 5 6 7 7 7 6 6 7 7 8 7 6 6 6 6 5 5 4 4 5 5 5 6 6 6 6 7 7 7 7 6 6 5 5 5 5 6 7 8 8 8 8 7 6 6 6 6 6 6 6
4 4 7 9 8 8 8 7 6 6 8 10 11 11 12 12 11 11 10 10 11 11 10 11 10 8 7 8 10 11 12 11 9 7 6 6 7 8 8 8 8 7 6 6 7 7 7 7 7 6 6 6 7 7 7 8 8 7 7 6 6 7 8 9 8 8 8 8 8 8 7 7 7 7 7 8 8 9 9 9 9 9 9 8 7
1 -1 2 4 7 9 11 12 10 8 6 6 7 8 8 9 11 13 13 12 13 13 12 13 13 12 11 11 12 13 14 14 12 11 8 7 9 10 9 10 10 9 8 8 8 10 10 9 9 8 7 7 9 10 10 9 8 7 7 8 9 9 9 9 9 9 10 10 10 10 9 10 10 10 10 10 9 10 10 10 11 13 13 13 14
23 19 14 11 9 6 5 6 8 9 9 9 10 9 7 5 5 6 9 11 13 14 14 14 14 15 14 13 12 13 15 15 15 15 12 9 8 9 11 12 13 12 12 10 9 10 10 10 10 11 11 11 12 11 10 9 8 9 10 11 11 10 10 9 9 10 10 10 10 9 10 11 11 11 11 11 11 11 11 10 10 11 10 10 11
24 31 30 27 24 20 15 10 6 2 3 8 11 11 10 9 7 5 4 3 4 6 8 9 9 10 11 11 11 12 15 17 17 17 16 14 10 8 8 10 12 14 15 14 11 9 9 10 11 12 12 12 11 10 9 9 9 9 10 10 10 11 10 10 9 9 8 8 8 8 8 9 8 9 9 9 9 9 9 9 9 9 9 9 10
-8 -7 -0 12 22 28 30 31 28 21 17 14 12 10 9 11 13 14 12 10 8 7 7 7 7 6 5 4 4 5 7 9 12 13 15 16 15 13 11 10 9 10 12 12 12 12 12 11 11 11 11 11 10 10 11 12 11 10 10 10 10 11 10 10 10 10 10 10 10 9 9 10 9 9 10 10 10 10 10 10 11 11 11 11 11
1 -6 0 14 25 33 36 37 37 37 34 28 23 19 15 12 11 11 11 10 9 8 8 8 8 8 6 4 3 3 3 4 5 6 8 9 10 10 10 10 9 9 9 10 11 12 12 12 12 12 12 11 10 10 11 11 11 11 12 12 12 12 11 11 12 12 12 12 12 12 13 13 13 13 13 12 13 13 13 12 12 12 12 12 12
25 21 15 4 -6 -3 5 7 10 16 23 25 25 24 20 17 14 11 8 6 5 7 9 10 11 10 9 7 5 4 5 6 7 6 6 6 5 5 6 6 6 7 7 8 10 10 10 10 10 10 10 10 11 11 12 11 11 11 11 10 10 10 10 11 12 12 12 12 12 12 12 12 12 13 13 12 12 12 11 11 11 10 10 10 10
17 26 27 13 -4 -12 -15 -19 -19 -14 -8 -4 1 5 10 15 18 18 17 15 13 11 12 14 15 16 16 15 14 13 12 12 13 13 12 10 8 7 6 5 4 4 5 6 8 9 9 9 9 9 9 9 10 10 11 11 12 12 11 11 10 10 10 11 11 11 11 12 12 12 12 11 11 11 11 10 11 10 10 10 10 9 9 10 10
3 11 18 17 15 14 10 5 4 3 -1 -5 -4 -2 1 5 9 11 15 18 17 15 12 11 11 13 15 17 18 19 16 14 14 16 18 20 20 17 14 11 8 7 7 9 10 9 8 7 8 8 9 9 9 9 9 10 10 10 10 10 10 10 10 10 10 10 11 11 11 11 11 10 10 9 9 9 9 9 9 10 10 9 9 9 9
6 4 4 4 6 9 10 9 10 13 15 15 14 13 11 9 6 6 10 14 17 19 18 15 12 10 9 8 10 11 10 8 8 10 13 18 20 21 21 20 18 16 14 15 16 16 13 11 10 9 9 10 9 9 9 10 10 10 10 10 11 11 11 10 10 10 10 10 10 10 11 10 10 10 10 10 10 10 10 10 10 10 11 11 12
6 1 9 22 32 34 31 22 13 8 8 9 10 13 16 17 16 14 12 10 11 16 20 22 21 19 15 12 10 9 8 7 5 3 2 3 6 9 13 16 17 16 14 14 16 18 18 17 15 14 13 14 14 14 13 13 13 12 12 11 11 11 12 12 12 12 11 11 12 12 12 12 12 12 12 12 12 12 12 12 13 14 14 14 14
Height
5934 5935 5936 5937 5938 5939 5941 5942 5943 5945 5946 5947 5948 5949 5949 5951 5952 5952 5953 5954 5955 5956 5956 5956 5956 5956 5956 5957 5957 5958 5959 5959 5959 5960 5960 5960 5960 5961 5961 5961 5961 5961 5961 5961 5961 5961 5961 5962 5962 5962 5962 5963 5963 5963 5962 5962 5962 5962 5962 5962 5962 5962 5962 5962 5962 5962 5962 5962 5961 5961 5961 5960 5960 5959 5959 5958 5958 5958 5957 5957 5957 5957 5957 5957 5957
5932 5933 5934 5935 5936 5937 5939 5940 5941 5942 5944 5945 5946 5947 5948 5949 5950 5951 5952 5953 5953 5954 5954 5955 5955 5955 5955 5956 5956 5957 5958 5958 5959 5959 5959 5959 5959 5960 5960 5960 5960 5960 5960 5960 5960 5960 5961 5961 5961 5961 5961 5961 5962 5962 5962 5961 5961 5962 5962 5962 5962 5961 5961 5962 5962 5961 5961 5961 5960 5960 5960 5960 5959 5959 5958 5958 5957 5957 5957 5957 5957 5957 5957 5957 5957
5929 5931 5933 5933 5934 5935 5937 5938 5939 5940 5941 5943 5944 5945 5946 5947 5948 5949 5951 5951 5952 5952 5953 5953 5954 5954 5954 5955 5955 5956 5956 5957 5957 5958 5958 5958 5958 5959 5959 5959 5960 5960 5960 5960 5960 5960 5960 5960 5960 5960 5960 5960 5961 5961 5961 5961 5961 5961 5961 5961 5961 5961 5961 5961 5961 5960 5960 5960 5960 5959 5959 5959 5958 5958 5958 5958 5958 5958 5958 5957 5957 5957 5956 5956 5956
5927 5929 5930 5931 5932 5933 5935 5936 5938 5939 5940 5941 5942 5944 5945 5946 5947 5948 5949 5950 5950 5951 5951 5951 5952 5953 5953 5954 5954 5954 5955 5956 5956 5957 5957 5957 5957 5958 5958 5958 5958 5959 5959 5959 5959 5959 5959 5959 5959 5959 5960 5960 5960 5960 5960 5960 5960 5960 5960 5961 5961 5961 5961 5960 5960 5960 5960 5960 5959 5959 5958 5958 5958 5958 5958 5958 5958 5958 5957 5957 5957 5957 5956 5956 5955
5925 5926 5927 5929 5929 5931 5932 5934 5935 5937 5938 5939 5941 5942 5943 5944 5945 5946 5947 5947 5948 5949 5949 5949 5950 5951 5952 5952 5953 5953 5954 5954 5955 5955 5956 5956 5956 5956 5957 5957 5957 5958 5958 5958 5958 5958 5958 5958 5959 5959 5959 5959 5959 5959 5959 5959 5959 5959 5960 5960 5960 5960 5960 5960 5959 5959 5959 5959 5959 5958 5958 5958 5958 5958 5958 5958 5957 5957 5957 5957 5956 5956 5956 5956 5955
5923 5924 5925 5927 5928 5929 5930 5931 5933 5934 5935 5937 5938 5940 5941 5942 5942 5943 5944 5945 5946 5947 5947 5947 5948 5949 5950 5951 5951 5952 5952 5953 5953 5954 5954 5954 5955 5955 5955 5956 5956 5956 5956 5956 5956 5956 5957 5957 5958 5958 5958 5958 5958 5958 5958 5959 5959 5959 5959 5959 5959 5959 5959 5959 5959 5959 5959 5959 5958 5958 5958 5958 5958 5958 5957 5957 5957 5956 5956 5955 5955 5954 5954 5954 5954
5921 5922 5923 5925 5926 5927 5928 5929 5930 5931 5932 5934 5935 5937 5938 5939 5940 5941 5942 5943 5944 5944 5945 5945 5946 5947 5948 5949 5950 5951 5951 5952 5952 5952 5953 5953 5953 5953 5954 5954 5954 5954 5954 5955 5955 5955 5956 5956 5956 5956 5957 5957 5957 5957 5958 5958 5958 5958 5958 5958 5958 5958 5958 5958 5958 5958 5958 5958 5958 5958 5957 5957 5957 5957 5956 5956 5955 5954 5954 5953 5953 5952 5952 5952 5952
5918 5919 5921 5923 5924 5926 5927 5927 5928 5928 5929 5931 5932 5933 5934 5936 5937 5938 5940 5941 5942 5942 5943 5943 5944 5945 5946 5947 5948 5949 5950 5950 5950 5951 5951 5951 5951 5952 5952 5952 5953 5953 5953 5953 5954 5954 5955 5955 5955 5955 5956 5956 5956 5956 5956 5956 5956 5956 5957 5957 5957 5957 5957 5957 5958 5958 5957 5957 5957 5956 5956 5956 5956 5955 5955 5954 5954 5953 5953 5952 5951 5950 5950 5950 5951
5914 5916 5918 5920 5921 5923 5924 5925 5925 5926 5927 5928 5929 5930 5930 5932 5933 5934 5935 5936 5938 5939 5940 5941 5941 5942 5944 5945 5946 5947 5947 5948 5948 5949 5949 5949 5949 5950 5950 5951 5951 5952 5952 5952 5952 5953 5954 5954 5954 5954 5955 5955 5955 5955 5955 5955 5955 5955 5955 5955 5955 5955 5956 5956 5956 5956 5955 5955 5955 5955 5954 5954 5954 5954 5953 5953 5953 5952 5952 5951 5950 5950 5949 5948 5949
5911 5913 5915 5917 5918 5919 5920 5922 5923 5924 5925 5926 5927 5928 5928 5929 5930 5931 5932 5933 5934 5935 5936 5937 5938 5939 5941 5943 5944 5945 5945 5945 5946 5946 5947 5947 5948 5948 5948 5949 5949 5950 5951 5951 5951 5952 5953 5953 5952 5952 5953 5954 5954 5953 5954 5954 5954 5953 5953 5953 5953 5954 5954 5954 5953 5953 5953 5953 5953 5953 5952 5952 5952 5952 5951 5951 5951 5951 5951 5950 5950 5949 5948 5947 5947
5908 5909 5911 5913 5915 5916 5917 5919 5920 5922 5923 5924 5925 5925 5926 5927 5928 5928 5929 5930 5931 5932 5932 5933 5935 5937 5939 5941 5942 5942 5942 5942 5943 5944 5944 5945 5945 5946 5946 5946 5947 5948 5949 5950 5950 5951 5951 5951 5950 5950 5951 5951 5951 5951 5951 5951 5952 5951 5951 5951 5952 5952 5952 5951 5951 5951 5951 5950 5950 5950 5950 5950 5950 5950 5950 5950 5950 5949 5949 5949 5949 5948 5948 5947 5945
5905 5906 5908 5910 5912 5913 5914 5916 5918 5919 5921 5922 5923 5923 5923 5924 5925 5926 5927 5928 5929 5930 5930 5931 5933 5935 5935 5936 5937 5938 5938 5939 5940 5941 5942 5942 5943 5943 5944 5944 5945 5946 5947 5948 5949 5948 5948 5948 5947 5948 5948 5948 5948 5948 5948 5948 5949 5949 5949 5949 5949 5949 5949 5949 5949 5949 5949 5948 5948 5948 5948 5948 5948 5948 5948 5948 5948 5948 5948 5948 5947 5947 5946 5945 5944
5901 5903 5905 5907 5909 5910 5911 5913 5915 5916 5918 5919 5920 5921 5921 5921 5922 5923 5925 5926 5927 5928 5929 5929 5931 5932 5932 5932 5934 5935 5936 5937 5937 5938 5938 5939 5940 5941 5941 5942 5944 5944 5944 5945 5945 5946 5946 5946 5945 5945 5945 5944 5944 5945 5945 5946 5946 5946 5946 5946 5947 5947 5947 5947 5947 5947 5947 5946 5946 5946 5946 5946 5946 5946 5947 5947 5946 5946 5946 5946 5946 5945 5944 5943 5943
5896 5899 5902 5904 5906 5907 5909 5910 5911 5912 5914 5916 5917 5918 5918 5919 5920 5921 5922 5923 5924 5926 5927 5927 5928 5929 5930 5930 5931 5932 5933 5934 5935 5935 5936 5936 5937 5938 5938 5940 5942 5942 5941 5941 5941 5942 5943 5943 5943 5943 5942 5942 5942 5942 5942 5942 5943 5943 5943 5944 5944 5944 5944 5945 5945 5945 5945 5945 5944 5944 5944 5944 5944 5944 5944 5945 5945 5945 5944 5944 5944 5943 5942 5941 5941
5893 5896 5899 5901 5903 5904 5906 5907 5908 5909 5911 5912 5913 5914 5915 5916 5917 5917 5918 5920 5921 5923 5924 5924 5924 5925 5927 5928 5929 5929 5930 5931 5932 5933 5933 5934 5934 5934 5935 5937 5938 5938 5937 5937 5937 5938 5939 5939 5940 5940 5940 5940 5940 5940 5940 5940 5940 5940 5940 5941 5941 5941 5942 5942 5942 5942 5942 5943 5942 5942 5942 5942 5942 5942 5942 5942 5942 5942 5942 5941 5941 5940 5940 5939 5938
5892 5894 5897 5899 5900 5902 5903 5904 5905 5906 5908 5909 5910 5912 5912 5913 5914 5915 5915 5916 5918 5920 5921 5921 5921 5922 5923 5925 5926 5926 5927 5928 5928 5929 5930 5930 5931 5931 5932 5933 5934 5933 5933 5933 5933 5934 5934 5935 5935 5936 5936 5937 5937 5937 5937 5937 5937 5937 5938 5938 5938 5939 5940 5940 5939 5939 5940 5940 5940 5940 5939 5939 5939 5939 5939 5939 5940 5940 5939 5938 5938 5938 5938 5937 5936
5891 5893 5895 5897 5898 5899 5900 5901 5902 5903 5904 5905 5907 5909 5909 5910 5911 5912 5912 5913 5914 5915 5916 5917 5918 5918 5919 5921 5923 5923 5923 5924 5925 5926 5926 5927 5926 5927 5928 5929 5929 5928 5929 5929 5930 5930 5931 5932 5932 5931 5932 5933 5933 5934 5934 5934 5934 5935 5935 5936 5936 5937 5937 5937 5936 5936 5937 5937 5937 5937 5937 5936 5937 5936 5936 5937 5937 5937 5936 5935 5935 5935 5935 5934 5933
5891 5893 5894 5895 5896 5897 5898 5899 5900 5901 5902 5903 5904 5906 5906 5907 5908 5908 5909 5910 5910 5910 5911 5912 5913 5914 5915 5917 5918 5919 5919 5920 5921 5921 5922 5922 5922 5922 5923 5924 5925 5925 5925 5925 5925 5926 5927 5928 5928 5928 5928 5928 5929 5930 5930 5930 5931 5932 5932 5932 5933 5933 5933 5933 5933 5934 5934 5934 5934 5934 5934 5934 5933 5933 5934 5934 5934 5934 5933 5933 5933 5933 5932 5932 5931
5890 5891 5892 5893 5894 5895 5896 5897 5898 5899 5900 5901 5902 5903 5903 5904 5905 5905 5906 5906 5906 5907 5907 5907 5908 5909 5910 5912 5913 5914 5915 5916 5917 5917 5917 5917 5917 5917 5918 5919 5919 5920 5920 5920 5920 5921 5922 5923 5923 5924 5925 5924 5924 5925 5925 5926 5927 5928 5928 5929 5929 5930 5930 5930 5931 5931 5931 5931 5931 5931 5931 5930 5930 5930 5931 5932 5931 5930 5929 5930 5930 5930 5929 5928 5928
5888 5889 5890 5891 5892 5893 5894 5894 5895 5896 5897 5898 5899 5900 5901 5901 5902 5902 5903 5903 5903 5904 5904 5904 5905 5905 5906 5907 5909 5910 5911 5912 5912 5912 5912 5912 5912 5913 5913 5913 5914 5914 5915 5915 5915 5915 5916 5917 5917 5918 5919 5920 5919 5919 5920 5922 5922 5923 5925 5925 5925 5926 5926 5926 5927 5927 5927 5927 5927 5927 5927 5927 5927 5927 5928 5928 5926 5925 5925 5926 5926 5925 5925 5925 5924
5886 5886 5887 5889 5889 5890 5891 5891 5892 5893 5894 5895 5896 5896 5897 5898 5898 5899 5899 5900 5901 5902 5902 5901 5902 5902 5902 5903 5904 5905 5906 5907 5907 5907 5907 5906 5907 5908 5908 5908 5908 5908 5909 5909 5910 5910 5911 5911 5912 5913 5914 5914 5915 5915 5916 5917 5918 5919 5920 5921 5921 5922 5922 5922 5923 5923 5923 5923 5923 5923 5923 5923 5923 5922 5923 5923 5922 5921 5922 5922 5921 5921 5921 5921 5920
5882 5883 5884 5885 5886 5887 5887 5888 5889 5890 5891 5892 5892 5893 5894 5894 5895 5895 5896 5896 5898 5899 5898 5898 5899 5899 5899 5900 5900 5901 5902 5902 5902 5902 5902 5902 5902 5902 5903 5903 5903 5903 5903 5903 5904 5905 5906 5906 5907 5908 5908 5909 5910 5911 5911 5912 5913 5914 5915 5916 5917 5917 5917 5918 5918 5919 5920 5920 5920 5920 5919 5919 5919 5918 5917 5918 5919 5918 5918 5917 5917 5916 5917 5917 5916
5878 5880 5881 5882 5882 5883 5884 5885 5885 5886 5887 5887 5888 5889 5890 5890 5891 5891 5892 5892 5893 5894 5894 5894 5895 5895 5896 5897 5897 5898 5898 5898 5899 5899 5899 5899 5898 5898 5899 5899 5900 5900 5900 5899 5899 5900 5902 5902 5902 5903 5903 5904 5904 5905 5906 5907 5908 5909 5910 5911 5912 5912 5912 5913 5914 5915 5916 5916 5916 5916 5916 5916 5915 5914 5913 5914 5915 5915 5914 5913 5912 5912 5912 5912 5912
5874 5875 5876 5877 5878 5879 5880 5881 5882 5882 5883 5883 5884 5885 5886 5886 5887 5887 5888 5888 5889 5889 5890 5890 5891 5891 5892 5893 5894 5894 5894 5895 5896 5897 5896 5895 5895 5895 5896 5896 5897 5897 5897 5897 5896 5896 5897 5898 5898 5898 5899 5899 5900 5900 5901 5902 5904 5905 5906 5907 5907 5907 5908 5908 5909 5911 5911 5911 5911 5911 5911 5911 5911 5910 5909 5909 5910 5910 5910 5909 5908 5907 5908 5908 5907
5869 5870 5871 5872 5873 5874 5875 5876 5877 5878 5878 5879 5880 5880 5881 5882 5883 5884 5884 5885 5885 5886 5886 5886 5886 5887 5888 5889 5890 5890 5890 5892 5893 5892 5891 5891 5892 5892 5893 5893 5894 5894 5894 5894 5894 5893 5893 5894 5895 5895 5894 5894 5895 5895 5896 5897 5898 5900 5901 5902 5902 5902 5903 5903 5904 5906 5906 5906 5906 5906 5906 5906 5906 5905 5905 5904 5905 5905 5905 5903 5902 5902 5903 5903 5902
5864 5865 5866 5867 5869 5870 5871 5871 5872 5873 5874 5874 5875 5876 5877 5878 5878 5879 5880 5881 5882 5882 5882 5882 5882 5883 5883 5884 5885 5886 5886 5888 5888 5887 5887 5887 5888 5889 5890 5891 5891 5891 5891 5891 5891 5891 5891 5892 5892 5893 5891 5890 5891 5892 5892 5893 5894 5894 5895 5896 5896 5897 5897 5898 5900 5901 5900 5900 5901 5901 5901 5901 5900 5900 5900 5900 5900 5899 5898 5897 5897 5898 5898 5897 5896
5859 5860 5861 5862 5864 5865 5866 5867 5867 5868 5868 5869 5870 5871 5872 5873 5874 5875 5875 5876 5877 5878 5878 5878 5879 5879 5879 5880 5881 5882 5883 5883 5883 5883 5883 5884 5884 5885 5887 5888 5888 5887 5887 5887 5887 5887 5888 5889 5890 5890 5889 5889 5889 5889 5889 5890 5890 5890 5890 5890 5890 5890 5891 5893 5894 5895 5894 5895 5895 5896 5895 5895 5895 5895 5895 5895 5895 5893 5892 5892 5893 5893 5892 5891 5891
5854 5855 5856 5857 5859 5860 5861 5862 5863 5863 5863 5864 5865 5866 5868 5868 5869 5870 5871 5872 5872 5873 5873 5874 5875 5876 5875 5875 5877 5878 5878 5879 5879 5879 5879 5880 5880 5881 5882 5882 5882 5882 5882 5882 5883 5883 5884 5885 5885 5885 5886 5886 5886 5886 5886 5886 5886 5885 5885 5885 5885 5885 5886 5887 5888 5889 5889 5890 5890 5890 5890 5890 5890 5890 5890 5890 5889 5889 5889 5889 5889 5888 5887 5887 5886
5848 5849 5850 5852 5854 5855 5856 5856 5858 5858 5858 5859 5860 5861 5862 5863 5864 5865 5866 5867 5868 5868 5869 5869 5871 5871 5871 5871 5872 5873 5874 5874 5875 5875 5875 5875 5876 5876 5877 5877 5877 5878 5878 5878 5878 5879 5880 5880 5880 5880 5880 5881 5882 5882 5883 5883 5882 5882 5882 5881 5880 5880 5881 5882 5883 5883 5884 5884 5884 5884 5884 5885 5885 5885 5884 5884 5884 5884 5884 5884 5884 5883 5882 5882 5881
5842 5843 5844 5846 5848 5849 5850 5851 5852 5852 5853 5854 5855 5856 5857 5857 5858 5859 5860 5861 5862 5863 5863 5864 5865 5866 5866 5866 5867 5868 5868 5869 5870 5870 5871 5871 5871 5872 5872 5872 5873 5873 5874 5874 5874 5874 5875 5875 5875 5875 5876 5877 5878 5878 5879 5878 5878 5878 5878 5877 5876 5876 5876 5876 5877 5878 5879 5879 5879 5878 5878 5879 5879 5879 5878 5878 5878 5879 5879 5879 5878 5878 5877 5876 5876
5836 5837 5839 5840 5841 5842 5844 5845 5846 5846 5847 5848 5849 5850 5851 5852 5852 5853 5855 5856 5856 5857 5858 5859 5860 5861 5861 5862 5862 5862 5863 5864 5865 5865 5865 5866 5866 5867 5867 5867 5868 5868 5868 5869 5869 5869 5870 5870 5871 5871 5872 5872 5873 5873 5873 5873 5874 5873 5873 5873 5872 5872 5872 5872 5873 5874 5874 5874 5873 5873 5873 5873 5873 5873 5873 5873 5873 5873 5872 5872 5872 5871 5871 5871 5870
5830 5831 5833 5835 5835 5836 5837 5838 5839 5840 5841 5842 5843 5845 5845 5846 5847 5848 5849 5850 5850 5851 5852 5853 5854 5854 5855 5856 5856 5857 5857 5858 5859 5859 5860 5860 5861 5861 5862 5862 5862 5863 5863 5863 5864 5865 5866 5866 5867 5867 5867 5867 5867 5867 5867 5867 5868 5868 5868 5868 5867 5867 5867 5868 5868 5868 5868 5868 5867 5867 5867 5868 5868 5868 5868 5867 5867 5866 5865 5865 5865 5864 5864 5864 5864
5824 5825 5826 5828 5829 5830 5830 5831 5832 5833 5834 5836 5837 5838 5838 5839 5841 5842 5843 5843 5844 5845 5846 5847 5847 5848 5849 5850 5850 5851 5851 5852 5852 5853 5854 5855 5855 5855 5856 5856 5857 5857 5857 5858 5859 5860 5860 5861 5861 5862 5862 5861 5861 5861 5860 5860 5861 5862 5863 5863 5862 5862 5862 5862 5862 5862 5862 5862 5862 5862 5863 5862 5862 5861 5860 5860 5859 5859 5858 5858 5857 5857 5857 5857 5857
5818 5818 5820 5822 5823 5823 5824 5824 5825 5826 5827 5829 5830 5831 5831 5832 5834 5835 5836 5837 5837 5839 5839 5840 5841 5842 5842 5843 5844 5844 5845 5846 5846 5847 5848 5848 5849 5849 5850 5850 5851 5852 5852 5853 5854 5854 5854 5855 5855 5855 5855 5855 5855 5855 5855 5855 5855 5856 5857 5857 5857 5857 5858 5857 5857 5856 5856 5856 5857 5857 5857 5856 5855 5854 5853 5852 5852 5851 5851 5851 5850 5850 5850 5850 5849
5811 5812 5813 5814 5815 5816 5816 5817 5817 5818 5820 5822 5823 5824 5824 5825 5827 5828 5828 5829 5830 5832 5833 5834 5835 5836 5836 5836 5836 5837 5839 5840 5841 5841 5841 5842 5842 5843 5844 5845 5845 5846 5846 5847 5847 5847 5847 5848 5848 5848 5849 5849 5848 5849 5849 5850 5850 5850 5850 5851 5851 5851 5851 5852 5852 5851 5851 5850 5850 5849 5849 5848 5847 5846 5845 5845 5844 5843 5843 5843 5843 5842 5842 5841 5840
5805 5805 5806 5807 5807 5808 5808 5809 5810 5811 5812 5813 5815 5816 5817 5818 5819 5820 5822 5823 5823 5824 5825 5827 5829 5829 5827 5827 5829 5831 5832 5833 5834 5834 5835 5835 5835 5836 5837 5838 5839 5839 5840 5840 5840 5840 5840 5841 5841 5842 5842 5842 5842 5842 5843 5843 5844 5844 5843 5843 5844 5844 5844 5845 5845 5845 5845 5844 5843 5841 5840 5839 5838 5838 5838 5837 5837 5836 5836 5835 5835 5834 5833 5832 5831
5798 5798 5798 5799 5800 5800 5801 5801 5802 5803 5804 5805 5806 5807 5808 5809 5811 5813 5814 5815 5816 5817 5819 5821 5822 5821 5818 5819 5822 5824 5824 5825 5826 5827 5827 5828 5828 5829 5830 5831 5832 5832 5833 5833 5833 5833 5833 5833 5833 5834 5834 5834 5834 5835 5835 5836 5836 5836 5836 5836 5836 5837 5837 5837 5837 5837 5837 5836 5835 5833 5832 5831 5830 5830 5830 5830 5829 5829 5828 5827 5826 5825 5824 5824 5823
5790 5790 5791 5792 5792 5792 5793 5793 5794 5795 5796 5797 5798 5799 5800 5801 5802 5804 5805 5806 5807 5810 5812 5814 5814 5812 5810 5810 5813 5816 5817 5818 5819 5819 5820 5820 5820 5820 5822 5824 5824 5824 5825 5826 5826 5826 5826 5825 5825 5826 5826 5826 5827 5828 5828 5829 5829 5828 5827 5827 5827 5828 5829 5829 5829 5828 5827 5826 5826 5825 5824 5823 5823 5822 5822 5822 5821 5821 5820 5819 5818 5817 5816 5815 5814
5783 5783 5784 5784 5784 5784 5785 5785 5786 5787 5788 5789 5790 5791 5792 5793 5793 5794 5795 5796 5799 5802 5804 5805 5805 5805 5804 5803 5804 5806 5808 5810 5811 5813 5813 5813 5812 5812 5813 5815 5816 5816 5817 5818 5818 5818 5818 5817 5817 5817 5818 5818 5819 5820 5821 5821 5820 5819 5818 5818 5819 5820 5821 5821 5820 5819 5818 5816 5816 5815 5815 5815 5814 5814 5814 5814 5813 5812 5811 5810 5809 5808 5807 5806 5805
5775 5776 5777 5777 5777 5777 5777 5778 5779 5779 5780 5780 5781 5783 5784 5784 5785 5785 5786 5788 5790 5793 5795 5796 5797 5798 5797 5797 5796 5797 5798 5801 5803 5806 5806 5806 5804 5804 5805 5806 5807 5808 5808 5808 5808 5808 5809 5809 5809 5809 5809 5810 5811 5812 5812 5812 5810 5809 5809 5809 5811 5813 5813 5813 5812 5811 5809 5807 5806 5805 5805 5805 5805 5805 5805 5805 5804 5803 5802 5801 5800 5799 5798 5797 5796
5767 5768 5768 5769 5769 5769 5769 5770 5771 5771 5772 5772 5773 5775 5776 5776 5776 5777 5778 5780 5782 5785 5787 5787 5789 5790 5790 5790 5790 5789 5790 5791 5794 5797 5799 5798 5797 5796 5796 5797 5798 5799 5800 5799 5798 5799 5799 5800 5800 5801 5801 5802 5802 5803 5803 5801 5800 5799 5799 5801 5803 5804 5804 5803 5803 5802 5800 5799 5797 5796 5796 5796 5796 5796 5795 5794 5794 5793 5793 5792 5791 5790 5789 5788 5787
5758 5758 5759 5760 5760 5759 5760 5762 5763 5763 5764 5764 5765 5767 5768 5768 5768 5769 5770 5772 5774 5776 5778 5779 5780 5781 5782 5782 5782 5781 5781 5783 5785 5788 5789 5790 5789 5788 5788 5788 5789 5790 5791 5790 5790 5790 5790 5790 5791 5792 5794 5794 5793 5793 5793 5792 5790 5790 5791 5792 5793 5794 5793 5793 5792 5792 5791 5790 5788 5787 5787 5788 5787 5786 5786 5785 5784 5783 5782 5781 5781 5780 5779 5778 5777
5747 5748 5749 5750 5750 5749 5750 5753 5754 5755 5756 5756 5757 5758 5759 5760 5760 5761 5762 5764 5764 5766 5768 5770 5771 5772 5773 5774 5773 5772 5773 5775 5777 5778 5779 5781 5781 5780 5780 5780 5780 5780 5781 5782 5781 5781 5781 5781 5783 5784 5785 5784 5783 5782 5783 5783 5783 5782 5782 5782 5783 5783 5783 5783 5782 5782 5781 5780 5779 5778 5779 5778 5778 5777 5776 5775 5775 5774 5773 5771 5770 5769 5768 5767 5766
5736 5738 5739 5739 5738 5738 5740 5742 5744 5745 5746 5747 5748 5750 5751 5751 5752 5753 5754 5755 5756 5756 5758 5760 5762 5764 5765 5766 5765 5764 5764 5766 5768 5769 5769 5771 5773 5773 5773 5773 5772 5771 5772 5773 5773 5772 5773 5774 5775 5775 5774 5773 5772 5772 5773 5775 5776 5775 5774 5773 5773 5773 5773 5773 5773 5773 5772 5770 5769 5769 5769 5769 5768 5768 5767 5766 5765 5764 5763 5762 5761 5760 5758 5757 5755
5727 5729 5731 5730 5729 5728 5729 5730 5731 5734 5736 5737 5738 5740 5741 5741 5743 5745 5746 5747 5748 5748 5748 5750 5752 5754 5756 5758 5758 5757 5756 5757 5759 5759 5760 5762 5763 5764 5765 5765 5764 5763 5762 5763 5763 5764 5765 5766 5766 5766 5765 5763 5763 5762 5764 5767 5767 5766 5765 5765 5764 5763 5763 5763 5763 5764 5763 5762 5761 5760 5760 5759 5759 5758 5757 5757 5756 5755 5753 5752 5751 5750 5748 5747 5746
5720 5721 5723 5724 5722 5720 5719 5720 5721 5723 5725 5727 5728 5730 5731 5731 5733 5736 5738 5738 5739 5739 5739 5739 5741 5744 5747 5749 5750 5749 5748 5748 5749 5749 5750 5752 5754 5755 5755 5755 5755 5754 5753 5754 5754 5755 5756 5756 5757 5756 5755 5754 5754 5755 5756 5758 5758 5757 5756 5755 5754 5753 5753 5754 5754 5754 5754 5753 5752 5751 5751 5750 5749 5748 5748 5747 5746 5745 5743 5742 5741 5740 5739 5737 5736
5712 5714 5715 5715 5713 5711 5710 5711 5713 5714 5716 5717 5719 5720 5721 5722 5724 5726 5728 5729 5730 5730 5729 5729 5731 5733 5736 5738 5740 5741 5740 5740 5740 5740 5740 5742 5744 5745 5746 5746 5746 5745 5744 5744 5745 5746 5747 5748 5747 5746 5745 5744 5745 5745 5747 5749 5749 5748 5747 5746 5744 5744 5745 5745 5744 5744 5744 5743 5743 5742 5742 5741 5740 5739 5738 5737 5736 5735 5734 5732 5731 5730 5729 5727 5726
5704 5704 5704 5704 5703 5701 5702 5704 5706 5707 5709 5711 5712 5713 5713 5714 5715 5716 5718 5720 5720 5721 5721 5721 5722 5723 5725 5727 5729 5731 5731 5730 5729 5730 5730 5732 5734 5735 5736 5737 5737 5736 5735 5734 5734 5736 5738 5739 5739 5738 5736 5735 5735 5736 5738 5739 5739 5738 5737 5736 5735 5735 5736 5735 5734 5734 5733 5733 5733 5733 5732 5731 5730 5729 5728 5727 5726 5725 5724 5722 5721 5720 5719 5717 5716
5694 5694 5693 5693 5693 5693 5694 5695 5697 5699 5701 5703 5704 5704 5705 5706 5707 5708 5709 5709 5710 5711 5713 5713 5713 5714 5715 5717 5718 5720 5721 5721 5720 5720 5721 5721 5722 5724 5725 5727 5728 5728 5725 5723 5722 5725 5728 5729 5730 5729 5727 5726 5726 5727 5728 5729 5729 5728 5727 5726 5726 5726 5726 5726 5725 5724 5724 5723 5724 5723 5722 5721 5721 5720 5719 5718 5717 5715 5714 5713 5712 5711 5709 5708 5706
5685 5685 5685 5685 5686 5686 5686 5686 5688 5690 5693 5694 5694 5695 5697 5698 5699 5700 5700 5700 5700 5702 5704 5706 5706 5705 5706 5706 5707 5709 5711 5712 5712 5711 5711 5711 5711 5713 5715 5717 5718 5718 5715 5712 5712 5714 5718 5719 5719 5719 5718 5717 5717 5718 5719 5719 5718 5718 5717 5717 5717 5717 5716 5716 5716 5715 5714 5714 5714 5713 5712 5712 5711 5710 5709 5709 5707 5706 5705 5704 5702 5701 5700 5698 5697
5677 5678 5678 5678 5677 5677 5677 5678 5680 5682 5684 5685 5685 5686 5688 5689 5690 5691 5691 5691 5692 5694 5696 5697 5697 5697 5696 5696 5697 5699 5702 5703 5703 5702 5701 5701 5702 5703 5705 5707 5708 5707 5705 5703 5703 5705 5707 5708 5709 5708 5708 5707 5708 5709 5709 5709 5708 5707 5707 5707 5707 5707 5707 5706 5705 5705 5705 5705 5704 5703 5702 5702 5701 5700 5700 5699 5698 5696 5695 5694 5693 5691 5690 5688 5687